Hourly Data Report for January 29, 2021

BANCROFT AUTO
ONTARIO
Current Station Operator: ECCC - MSC

45°04'17.000" N
77°52'44.000" W
330.70 m
616I001
71294
WRK

Download Data

Hourly Data (January 2021)
Hourly Data Report for January 29, 2021
TIME
LST
Temp Definition
°C
Dew Point Definition
°C
Rel Hum Definition
%
Precip. Amount Definition
mm

Wind Dir Definition
10's deg

Wind Spd Definition
km/h
Visibility Definition
km
Stn Press Definition
kPa
Hmdx Definition


Wind Chill Definition


Weather Definition


00:00 -17.2 -21.7 68 0.0 34 15   98.40   -26 LegendNANA
01:00 -18.3 -22.3 71 0.0 33 6   98.35   -23 LegendNANA
02:00 -19.2 -22.5 75 0.0 34 5   98.37   -23 LegendNANA
03:00 -21.1 -23.5 81 0.0 35 4   98.37   -25 LegendNANA
04:00 -20.0 -22.1 83 0.0 31 4   98.38   -23 LegendNANA
05:00 -21.4 -24.2 78 0.0 36 4   98.34   -25 LegendNANA
06:00 -18.9 -21.8 78 0.0 35 4   98.36   -22 LegendNANA
07:00 -21.1 -23.6 80 0.0 33 6   98.35   -26 LegendNANA
08:00 -20.4 -22.7 82 0.0 30 7   98.38   -26 LegendNANA
09:00 -17.2 -20.8 73 0.0 33 7   98.41   -22 LegendNANA
10:00 -15.5 -20.0 69 0.0 34 9   98.42   -21 LegendNANA
11:00 -14.2 -19.6 64 0.0 2 6   98.40   -18 LegendNANA
12:00 -12.5 -18.8 59 0.0 34 11   98.32   -19 LegendNANA
13:00 -12.3 -18.5 60 0.0 34 11   98.28   -18 LegendNANA
14:00 -11.8 -17.5 63 0.0 31 8   98.25   -17 LegendNANA
15:00 -11.9 -17.8 61 0.0 32 8   98.26   -17 LegendNANA
16:00 -12.0 -16.9 67 0.0 34 8   98.27   -17 LegendNANA
17:00 -12.2 -16.8 68 0.0 34 8   98.33   -17 LegendNANA
18:00 -12.6 -16.9 70 0.0 33 5   98.37   -16 LegendNANA
19:00 -13.1 -17.6 69 0.0 33 8   98.42   -18 LegendNANA
20:00 -13.4 -17.6 71 0.0 32 5   98.45   -17 LegendNANA
21:00 -13.4 -17.8 70 0.0 33 9   98.46   -19 LegendNANA
22:00 -13.6 -17.9 70 0.0 36 9   98.44   -19 LegendNANA
23:00 -14.0 -18.1 71 0.0 35 6   98.44   -18 LegendNANA

Notes on Data Quality.

Legend

  • E = Estimated
  • M = Missing
  • NA = Not Available*
  • [empty] = Indicates an unobserved value
Date modified: